�������ċp�F�����K�X���j�^�v���󋵏��
Date,Time,�ċp�F�����K�X���j�^(cps),����,����(m/s)
2023/04/10,00:00,1.4,���k��,0.7
2023/04/10,00:10,1.5,-,CALM
2023/04/10,00:20,1.5,���k��,1.6
2023/04/10,00:30,1.4,���k��,1.9
2023/04/10,00:40,1.5,���k��,0.9
2023/04/10,00:50,1.5,���쐼,1.3
2023/04/10,01:00,1.4,���k��,1.2
2023/04/10,01:10,1.5,�k��,1.3
2023/04/10,01:20,1.4,���k��,0.6
2023/04/10,01:30,1.5,���k��,1.0
2023/04/10,01:40,1.6,-,CALM
2023/04/10,01:50,1.4,-,CALM
2023/04/10,02:00,1.5,-,CALM
2023/04/10,02:10,1.5,���쐼,0.8
2023/04/10,02:20,1.5,���k��,1.1
2023/04/10,02:30,1.5,���k��,0.6
2023/04/10,02:40,1.5,��,0.7
2023/04/10,02:50,1.4,�쐼,1.3
2023/04/10,03:00,1.5,���k��,1.8
2023/04/10,03:10,1.5,���k��,1.1
2023/04/10,03:20,1.6,-,CALM
2023/04/10,03:30,1.5,��,0.5
2023/04/10,03:40,1.6,��,0.6
2023/04/10,03:50,1.5,-,CALM
2023/04/10,04:00,1.5,��,0.8
2023/04/10,04:10,1.5,-,CALM
2023/04/10,04:20,1.5,��,0.6
2023/04/10,04:30,1.5,-,CALM
2023/04/10,04:40,1.5,-,CALM
2023/04/10,04:50,1.5,��쐼,1.1
2023/04/10,05:00,1.6,���쐼,0.5
2023/04/10,05:10,1.6,-,CALM
2023/04/10,05:20,1.4,���쐼,0.7
2023/04/10,05:30,1.6,���쐼,0.8
2023/04/10,05:40,1.5,���쐼,1.0
2023/04/10,05:50,1.4,���쐼,1.1
2023/04/10,06:00,1.5,���쐼,1.3
2023/04/10,06:10,1.5,���쐼,0.8
2023/04/10,06:20,1.4,-,CALM
2023/04/10,06:30,1.5,���쐼,0.7
2023/04/10,06:40,1.5,���쐼,0.8
2023/04/10,06:50,1.5,���쐼,1.0
2023/04/10,07:00,1.5,��쐼,1.7
2023/04/10,07:10,1.5,��쐼,2.5
2023/04/10,07:20,1.6,��쐼,3.9
2023/04/10,07:30,1.5,��,3.4
2023/04/10,07:40,1.5,��,3.9
2023/04/10,07:50,1.5,��,3.7
2023/04/10,08:00,1.5,��,4.9
2023/04/10,08:10,1.5,��,5.5
2023/04/10,08:20,1.5,��,6.2
2023/04/10,08:30,1.6,��,5.9
2023/04/10,08:40,1.4,��,5.7
2023/04/10,08:50,1.5,��,7.0
2023/04/10,09:00,1.6,��쓌,5.7
2023/04/10,09:10,1.4,��쓌,5.9
2023/04/10,09:20,1.5,��쓌,6.5
2023/04/10,09:30,1.5,��쓌,5.7
2023/04/10,09:40,1.5,��쓌,6.8
2023/04/10,09:50,1.5,��쓌,6.8
2023/04/10,10:00,1.6,��쓌,5.9
2023/04/10,10:10,1.5,��쓌,6.8
2023/04/10,10:20,1.5,��쓌,6.7
2023/04/10,10:30,1.7,��쓌,6.2
2023/04/10,10:40,1.5,��,6.7
2023/04/10,10:50,1.5,��,7.2
2023/04/10,11:00,1.5,��,7.2
2023/04/10,11:10,1.5,��쓌,7.1
2023/04/10,11:20,1.4,��,6.9
2023/04/10,11:30,1.5,��,6.9
2023/04/10,11:40,1.5,��쓌,6.9
2023/04/10,11:50,1.5,��쓌,7.3
2023/04/10,12:00,1.5,��쓌,6.9
2023/04/10,12:10,1.5,��,6.5
2023/04/10,12:20,1.5,��,7.4
2023/04/10,12:30,1.5,��,5.2
2023/04/10,12:40,1.5,��,6.0
2023/04/10,12:50,1.4,��쓌,6.7
2023/04/10,13:00,1.5,��,7.1
2023/04/10,13:10,1.5,��,7.3
2023/04/10,13:20,1.5,��,6.3
2023/04/10,13:30,1.5,��,6.4
2023/04/10,13:40,1.6,��쓌,6.2
2023/04/10,13:50,1.5,��쓌,5.6
2023/04/10,14:00,1.5,��쓌,5.3
2023/04/10,14:10,1.5,��,6.3
2023/04/10,14:20,1.5,��,6.9
2023/04/10,14:30,1.6,��,6.9
2023/04/10,14:40,1.6,��쓌,5.9
2023/04/10,14:50,1.5,��쓌,6.0
2023/04/10,15:00,1.5,��쓌,5.6
2023/04/10,15:10,1.4,��쓌,6.0
2023/04/10,15:20,1.6,��,5.1
2023/04/10,15:30,1.6,��,5.9
2023/04/10,15:40,1.5,��쓌,5.8
2023/04/10,15:50,1.5,��쓌,5.9
2023/04/10,16:00,1.5,��쓌,5.4
2023/04/10,16:10,1.5,��쓌,5.6
2023/04/10,16:20,1.6,��쓌,6.4
2023/04/10,16:30,1.5,��,4.3
2023/04/10,16:40,1.6,��,4.8
2023/04/10,16:50,1.5,��,4.8
2023/04/10,17:00,1.5,��쓌,3.0
2023/04/10,17:10,1.5,��쓌,2.7
2023/04/10,17:20,1.6,��쓌,2.6
2023/04/10,17:30,1.6,��쓌,2.8
2023/04/10,17:40,1.6,��,2.8
2023/04/10,17:50,1.5,��쐼,2.9
2023/04/10,18:00,1.5,��쐼,3.5
2023/04/10,18:10,1.5,��,3.5
2023/04/10,18:20,1.6,��쐼,3.4
2023/04/10,18:30,1.4,��쐼,3.4
2023/04/10,18:40,1.5,��쐼,2.1
2023/04/10,18:50,1.5,�쐼,1.1
2023/04/10,19:00,1.5,��쐼,2.1
2023/04/10,19:10,1.6,��쐼,1.2
2023/04/10,19:20,1.5,���쐼,1.0
2023/04/10,19:30,1.6,���쐼,1.2
2023/04/10,19:40,1.6,���쐼,0.9
2023/04/10,19:50,1.5,�k�k��,1.1
2023/04/10,20:00,1.6,�k,0.8
2023/04/10,20:10,1.4,���쐼,1.0
2023/04/10,20:20,1.5,���쐼,0.9
2023/04/10,20:30,1.4,���쐼,1.1
2023/04/10,20:40,1.5,���쐼,1.3
2023/04/10,20:50,1.5,���쐼,1.2
2023/04/10,21:00,1.4,���쐼,0.8
2023/04/10,21:10,1.6,��쐼,0.9
2023/04/10,21:20,1.6,�k�k��,0.8
2023/04/10,21:30,1.5,���k��,0.9
2023/04/10,21:40,1.4,�k�k��,0.9
2023/04/10,21:50,1.5,�k,0.7
2023/04/10,22:00,1.5,-,CALM
2023/04/10,22:10,1.6,��,0.7
2023/04/10,22:20,1.6,���쐼,0.7
2023/04/10,22:30,1.5,��,0.9
2023/04/10,22:40,1.5,���k��,1.1
2023/04/10,22:50,1.5,�k��,0.6
2023/04/10,23:00,1.6,�k�k��,0.6
2023/04/10,23:10,1.5,-,CALM
2023/04/10,23:20,1.4,��,0.9
2023/04/10,23:30,1.4,���쐼,0.8
2023/04/10,23:40,1.6,���쐼,0.5
2023/04/10,23:50,1.5,���쐼,0.7
